This demonstration page uses our WeatherBlox Daily Observations layout. Learn more.

38.89511, -77.03637

Hourly Observations for February 18, 2015

Temp ( °F °C ) Dew Point ( °F °C ) Humidity (%) Winds ( mph kmh ) Pressure ( in mb ) Visibility ( mi km ) Precip ( " mm )
12:52 am 00:52 Mostly Cloudy 19 -7.2 13 -10.6 77 77 Calm 29.99 1016 10 16.0934 0 0
1:52 am 01:52 Partly Cloudy 18 -7.8 13 -10.6 81 81 Calm 29.99 1016 8 12.87472 0 0
2:52 am 02:52 Partly Cloudy 18 -7.8 12 -11.1 77 77 Calm 29.96 1015 8 12.87472 0 0
3:31 am 03:31 Partly Cloudy with Fog 12 -11 9 -13 85 85 Calm 29.97 1015 10 16.0934 0 0
3:47 am 03:47 Partly Cloudy with Fog 14 -10 10 -12 85 85 Calm 29.97 1015 10 16.0934 0 0
3:52 am 03:52 Partly Cloudy with Fog 14 -10 10 -12.2 84 84 Calm 29.96 1015 10 16.0934 0 0
4:52 am 04:52 Mostly Cloudy 16 -8.9 10 -12.2 77 77 NNE 3 6 29.96 1015 10 16.0934 0 0
5:52 am 05:52 Mostly Cloudy 17 -8.3 9 -12.8 70 70 NE 5 7 29.96 1014 10 16.0934 0 0
6:52 am 06:52 Partly Cloudy 18 -7.8 8 -13.3 65 65 E 5 7 29.96 1015 10 16.0934 0 0
7:52 am 07:52 Partly Cloudy 19 -7.2 12 -11.1 74 74 S 3 6 29.96 1014 8 12.87472 0 0
8:52 am 08:52 Mostly Sunny 20 -6.7 11 -11.7 68 68 S 6 9 29.95 1014 10 16.0934 0 0
9:52 am 09:52 Mostly Sunny 24 -4.4 11 -11.7 57 57 S 6 9 29.93 1014 10 16.0934 0 0
10:52 am 10:52 Partly Cloudy 28 -2.2 9 -12.8 44 44 S 5 7 29.91 1013 10 16.0934 0 0
11:16 am 11:16 Mostly Cloudy 28 -2 9 -13 43 43 S 3 6 29.91 1013 10 16.0934 0 0
11:52 am 11:52 Mostly Cloudy 29 -1.7 8 -13.3 41 41 SW 9 15 29.87 1012 10 16.0934 0 0
12:52 pm 12:52 Partly Cloudy 31 -0.6 10 -12.2 42 42 S 7 11 29.8 1009 10 16.0934 0 0
1:52 pm 13:52 Partly Cloudy 33 0.6 11 -11.7 40 40 S 12 19 29.76 1008 10 16.0934 0 0
2:31 pm 14:31 Mostly Cloudy 34 1 10 -12 38 38 S 12 19 29.74 1007 10 16.0934 0 0
2:52 pm 14:52 Cloudy 33 0.6 11 -11.7 40 40 S 13 20 29.75 1007 10 16.0934 0 0
3:52 pm 15:52 Mostly Cloudy 33 0.6 11 -11.7 40 40 S 9 15 29.75 1007 10 16.0934 0 0
4:52 pm 16:52 Mostly Cloudy 33 0.6 13 -10.6 43 43 S 12 19 29.73 1007 10 16.0934 0 0
5:52 pm 17:52 Cloudy 33 0.6 12 -11.1 42 42 SW 9 15 29.74 1007 10 16.0934 0 0
6:28 pm 18:28 Windy with Snow Likely 34 1 14 -10 44 44 NW 21 33 29.77 1008 7 11.26538 0 0
6:34 pm 18:34 Cloudy with Light Snow 32 0 21 -6 64 64 WNW 13 20 29.8 1009 2.5 4.02335 0 0
6:37 pm 18:37 Cloudy with Light Snow 32 0 23 -5 69 69 NW 15 24 29.8 1009 1.5 2.41401 0 0.0254
6:52 pm 18:52 Cloudy with Light Snow 31 -0.6 23 -5 72 72 WNW 7 11 29.78 1009 1.75 2.816345 0 0.0254
6:55 pm 18:55 Cloudy with Light Snow 30 -1 23 -5 75 75 WNW 8 13 29.8 1009 2 3.21868 0 0.0254
6:58 pm 18:58 Cloudy with Light Snow 30 -1 23 -5 75 75 WNW 6 9 29.8 1009 3 4.82802 0 0
7:03 pm 19:03 Cloudy 30 -1 23 -5 75 75 WNW 7 11 29.8 1009 8 12.87472 0 0
7:08 pm 19:08 Cloudy 30 -1 21 -6 69 69 WNW 7 11 29.8 1009 9 14.48406 0 0
7:37 pm 19:37 Windy with Snow Likely 30 -1 14 -10 51 51 NW 28 44 29.8 1009 5 8.0467 0 0.0254
7:52 pm 19:52 Cloudy 29 -1.7 11 -11.7 47 47 NW 21 33 29.83 1010 8 12.87472 0 0.0254
8:52 pm 20:52 Partly Cloudy 27 -2.8 7 -13.9 43 43 WNW 14 22 29.86 1011 10 16.0934 0 0
9:52 pm 21:52 Partly Cloudy 26 -3.3 4 -15.6 38 38 WNW 16 26 29.91 1013 10 16.0934 0 0
10:52 pm 22:52 Partly Cloudy 23 -5 -1 -18.3 35 35 NW 14 22 29.94 1014 10 16.0934 0 0
11:52 pm 23:52 Mostly Clear 21 -6.1 -6 -21.1 30 30 WNW 14 22 29.95 1014 10 16.0934 0 0

Powered by AerisWeather